7 * 24
多渠道服务支持
STARLINK-5510是美国SpaceX公司星链(Starlink)星座中的一颗低轨互联网通信卫星,于2023年2月17日由猎鹰9号火箭发射,属于星链第二代V2 Mini卫星批次。星链项目旨在通过低轨卫星群实现全球高速宽带互联网覆盖,STARLINK-5510具备更强通信能力,为全球偏远地区、移动场景提供网络接入服务,也推动了低轨卫星互联网的商业化部署。该卫星运行于约550公里高度的近地轨道,是星链大规模扩张星座的组成部分。
美国
(US)
| 数据来源 | 国际轨道数据 |
| 星历时间: | 2026-09-14T13:04:37+0800 12小时前 查看轨道信息 |
| 半长轴: | 6950.2km |
| 偏心率: | 0.0002809 |
| 轨道倾角: | 69.999° |
| 近地点辐角 | 266.322° |
| 升交点赤经 | 68.984° |
| 平近点角 | 93.762° |
| 近地点: | 570.11km |
| 远地点: | 574.016km |
| 周期: | 96.107分钟 |
| 每日圈数: | 14.983279 |